Find Starlink 31289

NORAD ID: 59173 Int'l Des: 2024-044 Owner: SPXS Country: US Constellation: starlink operational
LEOCIRCULAR

Aktuelle Ansicht

3D-Globus wird geladen...

Über Starlink 31289

Beschreibung wird geladen...

Nächste Überflüge

Passes for default location (London). Set your location on the main map for personalized predictions.

Höhenverlauf

Loading altitude history...

Zweizeiliger Elementsatz

1 59173U 24044X 26148.97413774 -.00001767 00000-0 -54742-4 0 9991
2 59173 43.0007 13.6581 0001069 18.9923 341.0969 15.27566947125870
Epoch: 28. Mai 2026 • Age: 29 hours

Aktueller Status

Höhe 485.8 km
Geschwindigkeit 7.63 km/s
Subsatellitenpunkt 41.94°N, 164.76°E
Startdatum 4. März 2024
Alter 2.2 years
Typ internet

Technische Details

Klassifizierung Payload
Masse 730.00 kg
Trockenmasse 700.00 kg
Gesamtmasse 730.00 kg
Länge 0.30 m
Durchmesser 4.10 m
Spannweite 29.00 m
Form Box + pan
Hersteller SPXS
Bus-Typ Starlink V2M
Phasenstatus In Orbit
Besitzer/Staat SPXS/US

Most Searched